Home > Weather > Victoria > Past weeks

Flag for Seychelles Past Weather in Victoria, Seychelles — Yesterday and Last 2 Weeks

Now
82 °F

Partly sunny.


Feels Like: 89 °F
Forecast: 75 / 80 °F
Wind: 15 mph from Southeast

Location: National Airport

Current Time: Jun 28, 2016 at 5:14:53 PM

Latest Report: Jun 28, 2016 at 4:00 PM


Visibility: N/A

Pressure: 29.83 "Hg

Humidity: 79%

Dew Point: 75 °F

Location of VictoriaLocation

Past Weather in Victoria — Graph

°F

Victoria Temperature Yesterday

Maximum temperature yesterday: 84 °F (at 1:00 PM)
Minimum temperature yesterday: 77 °F (at 12:00 AM)
Average temperature yesterday: 80 °F

High & Low Weather Summary for the Past Weeks

 TemperatureHumidityPressure
High86 °F (Jun 14, 1:00 PM)94% (Jun 13, 10:00 PM)29.98 "Hg (Jun 13, 10:00 PM)
Low75 °F (Jun 25, 3:00 AM)58% (Jun 21, 10:00 AM)29.83 "Hg (Jun 16, 1:00 AM)
Average80 °F79%29.89 "Hg
* Reported Jun 13 4:00 PM — Jun 28 4:00 PM, Victoria, Weather by CustomWeather, © 2016

Note: Actual official high and low records may vary slightly from our data, if they occured in-between our weather recording intervals... More about our weather records

Advertising

Victoria Weather History for the Previous 24 Hours

Scroll right to see more
 ConditionsComfort  
Time TempWeatherWind HumidityBarometerVisibility
4:00 PM
Tue, Jun 28
82 °FPartly sunny.15 mph79%29.83 "HgN/A
3:00 PM81 °FSprinkles. Partly sunny.15 mph79%29.83 "HgN/A
2:00 PM82 °FScattered clouds.16 mph74%29.83 "HgN/A
1:00 PM82 °FScattered clouds.20 mph79%29.86 "HgN/A
12:00 PM81 °FBroken clouds.23 mph79%29.89 "HgN/A
11:00 AM81 °FPartly sunny.21 mph79%29.92 "HgN/A
10:00 AM79 °FPartly sunny.21 mph84%29.92 "HgN/A
9:00 AM79 °FScattered clouds.10 mph84%29.92 "HgN/A
8:00 AM79 °FPartly sunny.23 mph84%29.89 "HgN/A
7:00 AM77 °FScattered clouds.9 mph89%29.86 "HgN/A
6:00 AM77 °FPassing clouds.8 mph89%29.86 "HgN/A
5:00 AM77 °FPassing clouds.12 mph89%29.83 "HgN/A
4:00 AM77 °FPassing clouds.12 mph83%29.86 "HgN/A
3:00 AM77 °FPassing clouds.10 mph89%29.83 "HgN/A
2:00 AM77 °FPassing clouds.9 mph89%29.86 "HgN/A
1:00 AM77 °FSprinkles. Passing clouds.9 mph94%29.89 "HgN/A
12:00 AM79 °FPassing clouds.9 mph84%29.89 "HgN/A
11:00 PM
Mon, Jun 27
79 °FPassing clouds.7 mph79%29.89 "HgN/A
10:00 PM79 °FPassing clouds.7 mph79%29.89 "HgN/A
9:00 PM79 °FPassing clouds.7 mph79%29.89 "HgN/A
8:00 PM79 °FPassing clouds.8 mph79%29.89 "HgN/A
7:00 PM81 °FPassing clouds.8 mph74%29.86 "HgN/A
6:00 PM81 °FScattered clouds.8 mph74%29.83 "HgN/A
5:00 PM81 °FPassing clouds.8 mph74%29.83 "HgN/A
Weather by CustomWeather, © 2016

See weather overviewHow to use our weather pages